Zurück zum Katalog

STARLINK-37820

AktivKommunikationSSO
NORAD 69423·PAYLOAD·🇺🇸 United States

Gestartet Jun 7, 2026 von Vandenberg Space Force Base

Loading…

Nächste Überflüge (nächste 24 Stunden)

TLE

AktuellSource: CelesTrak SupGP

Epoche: Sep 14, 2026, 15:58 UTC

1 69423C 26126D   26257.66576389 -.00023512  00000+0 -72978-3 0  2570
2 69423  97.2842 118.9138 0001933  92.3893 339.8458 15.33454227    16

Verfolge STARLINK-37820 in Echtzeit mit AllMySat

Download on the App Store